Fort Morgan, CO

11:42 PM MST on November 21, 2017 (GMT -0700)
Fort Morgan

Weather History for KFMM - February, 2014

Change the Weather History Date:

Sunday, February 2, 2014

  Actual Average (KAKO) Record (KAKO)
Temperature  
Mean Temperature 11 °F -  
Max Temperature 21 °F 37 °F 66 °F (2000)
Min Temperature 0 °F 14 °F -18 °F (1989)
Degree Days  
Heating Degree Days 54    
Moisture  
Dew Point 9 °F    
Average Humidity 84    
Maximum Humidity 93    
Minimum Humidity 71    
Precipitation  
Precipitation 0.00 in - - ()
Sea Level Pressure  
Sea Level Pressure 30.03 in    
Wind  
Wind Speed 4 mph (West)    
Max Wind Speed 13 mph    
Max Gust Speed -    
Visibility 5 miles    
Events Fog    
Averages and records for this station are not official NWS values.
T = Trace of Precipitation, MM = Missing Value Source: NWS Daily Summary

Daily Weather History Graph

Daily Weather History Graph

Search for Another Location

Airport or City:

Trip Planner

Search our weather history database for the weather conditions in past years. The results will help you decide how hot, cold, wet, or windy it might be!

Date:

Astronomy

Feb. 02, 2014 Rise Set
Actual Time 7:03 AM MST 5:15 PM MST
Civil Twilight 6:34 AM MST 5:43 PM MST
Nautical Twilight 6:02 AM MST 6:16 PM MST
Astronomical Twilight 5:30 AM MST 6:48 PM MST
Moon 8:30 AM MST (2/2) 9:02 PM MST (2/2)
Length of Visible Light 11h 09m
Length of Day
10h 11m
Waxing Crescent, 12% of the Moon is Illuminated
Feb 2
Waxing Crescent
Feb 6
First Quarter
Feb 14
Full
Feb 22
Last Quarter
Mar 1
New

Hourly Weather History & Observations

Time (MST) Temp. Windchill Dew Point Humidity Pressure Visibility Wind Dir Wind Speed Gust Speed Precip Events Conditions
12:15 AM 10.0 °F - 8.2 °F 92% 30.10 in 1.2 mi Calm Calm - N/A   Mostly Cloudy
12:35 AM - - - N/A% 30.10 in 0.8 mi Calm Calm - N/A   Mist
12:55 AM - - - N/A% 30.09 in 0.8 mi South 3.5 mph - N/A   Overcast
1:15 AM - - - N/A% 30.09 in 0.5 mi Calm Calm - N/A Fog Fog
1:35 AM - - - N/A% 30.09 in 0.2 mi Calm Calm - N/A Fog Fog
1:55 AM - - - N/A% 30.09 in 0.5 mi Calm Calm - N/A Fog Fog
2:15 AM - - - N/A% 30.09 in 0.5 mi Calm Calm - N/A Fog Fog
2:35 AM - - - N/A% 30.08 in 0.5 mi West 3.5 mph - N/A Fog Fog
2:55 AM - - - N/A% 30.08 in 0.8 mi West 5.8 mph - N/A   Mist
3:15 AM - - - N/A% 30.07 in 10.0 mi West 6.9 mph - N/A   Clear
3:35 AM - - - N/A% 30.07 in 10.0 mi WNW 6.9 mph - N/A   Clear
3:55 AM - - - N/A% 30.06 in 10.0 mi West 6.9 mph - N/A   Clear
4:15 AM - - - N/A% 30.06 in 10.0 mi West 6.9 mph - N/A   Clear
4:35 AM - - - N/A% 30.05 in 10.0 mi West 6.9 mph - N/A   Clear
4:55 AM - - - N/A% 30.05 in 10.0 mi WSW 8.1 mph - N/A   Clear
5:15 AM - - - N/A% 30.05 in 10.0 mi SW 5.8 mph - N/A   Clear
5:35 AM - - - N/A% 30.05 in 7.0 mi WSW 4.6 mph - N/A   Scattered Clouds
5:55 AM - - - N/A% 30.05 in 5.0 mi WSW 4.6 mph - N/A   Haze
6:15 AM - - - N/A% 30.05 in 7.0 mi West 5.8 mph - N/A   Overcast
6:35 AM - - - N/A% 30.05 in 10.0 mi West 5.8 mph - N/A   Overcast
6:55 AM - - - N/A% 30.05 in 10.0 mi West 11.5 mph - N/A   Scattered Clouds
7:15 AM - - - N/A% 30.06 in 5.0 mi West 12.7 mph - N/A   Haze
7:35 AM - - - N/A% 30.06 in 4.0 mi West 10.4 mph - N/A   Haze
7:55 AM - - - N/A% 30.07 in 2.0 mi West 10.4 mph - N/A   Overcast
8:15 AM - - - N/A% 30.08 in 3.0 mi West 3.5 mph - N/A   Overcast
8:35 AM - - - N/A% 30.07 in 4.0 mi West 8.1 mph - N/A   Haze
8:55 AM - - - N/A% 30.07 in 10.0 mi West 11.5 mph - N/A   Scattered Clouds
9:15 AM - - - N/A% 30.08 in 10.0 mi West 9.2 mph - N/A   Clear
9:35 AM - - - N/A% 30.08 in 7.0 mi WSW 8.1 mph - N/A   Mostly Cloudy
9:55 AM - - - N/A% 30.08 in 5.0 mi West 8.1 mph - N/A   Haze
10:15 AM - - - N/A% 30.09 in 7.0 mi West 8.1 mph - N/A   Scattered Clouds
10:35 AM - - - N/A% 30.08 in 5.0 mi West 9.2 mph - N/A   Haze
10:55 AM - - - N/A% 30.09 in 5.0 mi West 6.9 mph - N/A   Unknown
11:15 AM - - - N/A% 30.07 in 4.0 mi West 9.2 mph - N/A   Haze
11:35 AM - - - N/A% 30.07 in 4.0 mi West 8.1 mph - N/A   Haze
11:55 AM - - - N/A% 30.05 in 4.0 mi West 10.4 mph - N/A   Haze
12:15 PM - - - N/A% 30.05 in 4.0 mi West 12.7 mph - N/A   Haze
12:35 PM - - - N/A% 30.04 in 4.0 mi West 9.2 mph - N/A   Haze
12:55 PM - - - N/A% 30.03 in 4.0 mi WNW 9.2 mph - N/A   Haze
1:15 PM - - - N/A% 30.02 in 4.0 mi West 4.6 mph - N/A   Haze
1:35 PM 21.0 °F 13.4 °F 13.1 °F 71% 30.01 in 5.0 mi West 5.8 mph - N/A   Haze
1:55 PM 20.7 °F 14.2 °F 13.3 °F 73% 30.01 in 5.0 mi West 4.6 mph - N/A   Haze
2:15 PM 20.5 °F 14.0 °F 13.1 °F 73% 30.01 in 5.0 mi West 4.6 mph - N/A   Haze
2:35 PM 19.2 °F 14.1 °F 12.9 °F 76% 30.00 in 5.0 mi WNW 3.5 mph - N/A   Haze
2:55 PM 20.3 °F - 12.9 °F 73% 30.00 in 5.0 mi Calm Calm - N/A   Haze
3:15 PM 19.9 °F - 12.7 °F 74% 30.00 in 5.0 mi Calm Calm - N/A   Haze
3:35 PM 19.2 °F - 12.4 °F 75% 30.00 in 5.0 mi Calm Calm - N/A   Haze
3:55 PM 18.1 °F 12.9 °F 12.0 °F 77% 30.00 in 5.0 mi NNW 3.5 mph - N/A   Haze
4:15 PM 16.7 °F - 11.1 °F 79% 29.99 in 7.0 mi Calm Calm - N/A   Clear
4:35 PM 17.1 °F - 11.3 °F 78% 30.00 in 5.0 mi Calm Calm - N/A   Haze
4:55 PM 12.9 °F 6.9 °F 9.1 °F 85% 30.00 in 5.0 mi West 3.5 mph - N/A   Clear
5:15 PM 12.2 °F - 10.0 °F 91% 30.00 in 4.0 mi Calm Calm - N/A   Clear
5:35 PM 13.1 °F - 10.9 °F 91% 30.00 in 7.0 mi Calm Calm - N/A   Clear
5:55 PM 11.1 °F - 8.6 °F 90% 30.00 in 5.0 mi North - - N/A   Clear
6:15 PM 11.1 °F - 9.3 °F 92% 29.99 in 5.0 mi North - - N/A   Clear
6:35 PM 9.0 °F - 7.0 °F 92% 29.99 in 5.0 mi North - - N/A   Clear
6:55 PM 9.0 °F - 7.3 °F 93% 29.98 in 5.0 mi Calm Calm - N/A   Clear
7:15 PM 6.3 °F - 3.4 °F 88% 29.98 in 5.0 mi Calm Calm - N/A   Clear
7:35 PM 9.3 °F 2.8 °F 7.5 °F 92% 29.99 in 7.0 mi NW 3.5 mph - N/A   Clear
7:55 PM 10.4 °F 4.0 °F 8.4 °F 92% 29.98 in 5.0 mi West 3.5 mph - N/A   Clear
8:15 PM 3.0 °F -4.4 °F -0.6 °F 85% 29.99 in 4.0 mi WSW 3.5 mph - N/A   Clear
8:35 PM 1.8 °F -7.8 °F -0.6 °F 90% 29.99 in 1.2 mi West 4.6 mph - N/A   Mist
8:55 PM 0.7 °F -10.7 °F -2.0 °F 88% 29.98 in 0.5 mi West 5.8 mph - N/A Fog Light Freezing Fog
9:15 PM - - - N/A% 29.97 in 1.2 mi Calm Calm - N/A   Mist
9:35 PM - - - N/A% 29.96 in 2.5 mi Calm Calm - N/A   Clear
9:55 PM - - - N/A% 29.96 in 3.0 mi Calm Calm - N/A   Clear
10:15 PM - - - N/A% 29.96 in 2.5 mi SW 4.6 mph - N/A   Clear
10:35 PM - - - N/A% 29.96 in 2.0 mi West 4.6 mph - N/A   Clear
10:55 PM - - - N/A% 29.95 in 1.0 mi WSW 6.9 mph - N/A   Mostly Cloudy
11:15 PM - - - N/A% 29.94 in 2.0 mi WSW 5.8 mph - N/A   Scattered Clouds
11:35 PM - - - N/A% 29.95 in 2.0 mi West 11.5 mph - N/A   Overcast
11:55 PM - - - N/A% 29.95 in 0.5 mi West 9.2 mph - N/A Fog Fog